Overview Statistics Trail Chart Weather Telemetry Raw packets
 

This is the latest recevied weather packets stored in our database for station/object M0JUI-1. If no packets are shown the sender has not sent any weather packets the latest 10 day(s).

<< 5 6 7 8 9 10 11 >>
Time Temp. Humidity Pressure Rain* Wind** Luminosity Snow
1788599469 16.67° C 10% 1023.1 hPa 0 mm - 400 W/m² -
1788599169 16.11° C 10% 1023.1 hPa 0 mm - 398 W/m² -
1788598870 16.11° C 11% 1023 hPa 0 mm - 350 W/m² -
1788598569 15.56° C 12% 1022.9 hPa 0 mm - 326 W/m² -
1788598270 15.56° C 12% 1022.9 hPa 0 mm - 301 W/m² -
1788597970 15.56° C 13% 1022.9 hPa 0 mm - 287 W/m² -
1788597669 15.56° C 13% 1023 hPa 0 mm - 269 W/m² -
1788597369 15° C 14% 1022.8 hPa 0 mm - 263 W/m² -
1788597057 15° C 15% 1022.7 hPa 0 mm - 250 W/m² -
1788596757 15° C 14% 1022.7 hPa 0 mm - 245 W/m² -
1788596457 15° C 15% 1022.7 hPa 0 mm - 235 W/m² -
1788596157 15° C 15% 1022.7 hPa 0 mm - 212 W/m² -
1788595857 14.44° C 15% 1022.7 hPa 0 mm - 204 W/m² -
1788595557 14.44° C 15% 1022.7 hPa 0 mm - 175 W/m² -
1788595257 13.89° C 16% 1022.4 hPa 0 mm - 176 W/m² -
1788594957 13.89° C 16% 1022.4 hPa 0 mm - 174 W/m² -
1788594657 13.89° C 16% 1022.2 hPa 0 mm - 72 W/m² -
1788594357 13.89° C 16% 1022.3 hPa 0 mm - 182 W/m² -
1788594057 13.89° C 16% 1022.3 hPa 0 mm - 132 W/m² -
1788593745 14.44° C 16% 1022.3 hPa 0 mm - 103 W/m² -
1788593446 14.44° C 16% 1022.2 hPa 0 mm - 125 W/m² -
1788593145 14.44° C 16% 1022.1 hPa 0 mm - 146 W/m² -
1788592833 13.89° C 15% 1022 hPa 0 mm - 112 W/m² -
1788592533 13.33° C 14% 1021.8 hPa 0 mm - 95 W/m² -
1788592233 13.33° C 15% 1022.2 hPa 0 mm - 86 W/m² -

* Rain latest hour (hover to see other rain measurements)
** Current wind speed in m/s (hover to see current wind gust speed)